Home   Weather   Fresno   Past weeks

Flag for USA Past Weather in Fresno, California, USA — Yesterday and Last 2 Weeks

Now
56 °F

Overcast.


Feels Like: 56 °F
Forecast: 49 / 62 °F
Wind: No wind

Location: Fresno Air Terminal

Current Time: Dec 11, 2016 at 5:52:30 am

Latest Report: Dec 11, 2016 at 4:53 am


Visibility: 10 mi

Pressure: 30.10 "Hg

Humidity: 93%

Dew Point: 54 °F

Location of FresnoLocation

Past Weather in Fresno — Graph

°F

Fresno Temperature Yesterday

Maximum temperature yesterday: 67 °F (at 12:53 pm)
Minimum temperature yesterday: 56 °F (at 12:53 am)
Average temperature yesterday: 61 °F

High & Low Weather Summary for the Past Weeks

 TemperatureHumidityPressure
High67 °F (Dec 10, 12:53 pm)100% (Dec 6, 8:53 am)30.30 "Hg (Dec 6, 8:53 am)
Low32 °F (Dec 7, 3:53 am)41% (Nov 26, 10:53 am)29.86 "Hg (Nov 26, 11:53 am)
Average49 °F81%30.12 "Hg
* Reported Nov 26 4:53 am — Dec 11 4:53 am, Fresno, Weather by CustomWeather, © 2016

Note: Actual official high and low records may vary slightly from our data, if they occured in-between our weather recording intervals... More about our weather records

Advertising

Fresno Weather History for the Previous 24 Hours

Scroll right to see more
 ConditionsComfort  
Time TempWeatherWind HumidityBarometerVisibility
4:53 am
Sun, Dec 11
56 °FOvercast.No wind93%30.10 "Hg10 mi
3:53 am56 °FMostly cloudy.5 mph93%30.10 "Hg10 mi
2:53 am57 °FMostly cloudy.3 mph96%30.11 "Hg10 mi
1:53 am58 °FOvercast.5 mph90%30.11 "Hg9 mi
12:53 am58 °FLight rain. Overcast.8 mph90%30.11 "Hg8 mi
11:53 pm
Sat, Dec 10
60 °FMostly cloudy.3 mph80%30.09 "Hg10 mi
10:53 pm60 °FOvercast.7 mph80%30.10 "Hg10 mi
9:53 pm60 °FOvercast.6 mph83%30.09 "Hg10 mi
8:53 pm60 °FLight rain. Mostly cloudy.7 mph80%30.09 "Hg7 mi
7:53 pm60 °FOvercast.7 mph83%30.08 "Hg10 mi
6:53 pm61 °FMostly cloudy.8 mph81%30.07 "Hg10 mi
5:53 pm62 °FLight rain. Mostly cloudy.6 mph83%30.07 "Hg10 mi
4:53 pm63 °FMostly cloudy.3 mph81%30.06 "Hg10 mi
3:53 pm66 °FLight rain. Mostly cloudy.3 mph70%30.07 "Hg10 mi
2:53 pm67 °FMostly cloudy.3 mph66%30.08 "Hg7 mi
1:53 pm67 °FOvercast.3 mph68%30.07 "Hg4 mi
12:53 pm67 °FPartly sunny.5 mph66%30.08 "Hg10 mi
11:53 am66 °FBroken clouds.6 mph68%30.13 "Hg10 mi
10:53 am65 °FPartly sunny.3 mph70%30.16 "Hg10 mi
9:53 am62 °FPartly sunny.6 mph75%30.17 "Hg10 mi
8:53 am59 °FScattered clouds.3 mph84%30.16 "Hg10 mi
7:53 am57 °FOvercast.No wind87%30.16 "Hg10 mi
6:53 am57 °FOvercast.No wind87%30.16 "Hg10 mi
5:53 am56 °FMostly cloudy.6 mph90%30.15 "Hg10 mi
Weather by CustomWeather, © 2016

See weather overviewHow to use our weather pages